Probability
23 26 39 32 35 32 29 32 35 35 39 39 39 29 32 19 16 19 19 23 23 26 26 19 19 16 13 10 6 13 13 10 10 10 10 10 10 6 6 3 3 3 13
19 23 35 29 32 35 32 29 35 32 35 39 35 35 26 19 13 16 13 19 26 26 26 19 16 16 16 13 13 13 10 10 10 6 3 3 6 6 3 6 6 3 3
16 23 32 29 32 35 32 26 29 29 29 29 35 35 32 23 13 16 19 19 23 26 23 23 19 19 16 16 16 10 6 6 3 0 0 0 0 3 3 3 6 3 3
19 23 19 39 32 35 35 23 29 29 29 29 29 32 29 26 13 13 19 19 19 16 19 19 19 16 16 13 13 10 6 0 0 0 0 0 0 3 3 3 6 3 3
16 19 23 39 32 32 29 26 23 26 26 23 23 23 29 26 19 13 19 19 19 16 16 16 16 13 13 13 13 6 6 0 0 0 0 0 0 3 3 3 6 6 6
16 16 23 35 32 32 23 26 19 26 16 19 23 23 26 26 23 13 19 23 19 16 13 13 13 13 13 10 10 6 3 0 0 0 0 0 0 3 0 0 6 6 6
13 16 23 35 32 26 23 23 23 23 16 16 23 23 16 19 19 13 13 19 19 16 13 13 13 13 6 10 6 3 0 0 0 0 0 0 0 3 3 0 0 3 10
16 19 23 32 32 26 26 23 23 16 13 13 16 23 23 23 19 16 13 16 16 16 13 13 13 10 6 6 6 3 0 0 0 0 0 0 0 0 0 0 3 3 6
13 13 16 16 16 26 23 23 23 19 16 16 19 23 23 23 26 19 13 10 6 6 13 13 13 10 6 6 6 0 0 0 0 0 0 0 0 0 0 0 0 3 3
13 10 13 10 10 10 10 13 13 10 13 13 13 13 6 6 10 13 6 6 3 3 3 6 10 10 6 6 6 0 0 0 0 0 0 0 0 0 0 0 0 0 3
0 3 10 6 6 3 3 3 3 6 6 6 3 3 0 0 3 3 0 0 0 3 3 10 6 6 6 0 0 0 0 0 0 0 0 0 0 0 0 0 0 0 3
0 3 0 3 0 0 0 0 0 3 3 0 0 0 0 0 0 0 0 0 0 0 3 3 6 6 3 0 0 0 0 0 0 0 0 0 0 0 0 0 0 3 3
0 0 3 0 0 0 0 0 0 0 3 0 0 0 0 0 0 0 0 0 0 0 0 0 0 0 3 0 0 0 0 0 0 0 0 0 0 0 0 0 0 0 0
0 0 0 0 0 0 0 0 0 3 3 0 0 0 0 0 0 0 0 0 0 0 0 0 0 0 0 0 0 0 0 0 0 0 0 0 0 0 0 0 0 0 0
0 0 0 0 0 0 0 0 0 0 0 0 0 0 0 0 0 0 0 0 0 0 0 0 0 0 0 0 0 0 0 0 0 0 0 0 0 0 0 0 0 0 0
0 0 0 0 0 0 0 0 0 0 0 0 0 0 0 0 0 0 0 0 0 0 0 0 0 0 0 0 0 0 0 0 0 0 0 0 0 0 0 0 0 0 0
0 0 0 0 0 0 0 0 0 0 0 0 0 0 0 0 0 0 0 0 0 0 0 0 0 0 0 0 0 0 0 0 0 0 0 0 0 0 0 0 0 0 0
0 0 0 0 0 0 0 0 0 0 0 0 0 0 0 0 0 0 0 0 0 0 0 0 0 0 0 0 0 0 0 0 0 0 0 0 0 0 0 0 0 0 0
0 0 0 0 0 0 0 0 0 0 0 0 0 0 0 0 0 0 0 0 0 0 0 0 0 0 0 0 0 0 0 0 0 0 0 0 0 0 0 0 0 0 0
0 0 0 0 0 0 0 0 0 0 0 0 0 0 0 0 0 0 0 0 0 0 0 0 0 0 0 0 0 0 0 0 0 0 0 0 0 0 0 0 0 0 0
0 0 0 0 0 0 0 0 0 0 0 0 0 0 0 0 0 0 0 0 0 0 0 0 0 0 0 0 0 0 0 0 0 0 0 0 0 0 0 0 0 0 0
0 0 0 0 0 0 0 0 0 0 0 0 0 0 0 0 0 0 0 0 0 0 0 0 0 0 0 0 0 0 0 0 0 0 0 0 0 0 0 0 0 0 0
0 0 0 0 0 0 0 0 0 0 0 0 0 0 0 0 0 0 0 0 0 0 0 0 0 0 0 0 0 0 0 0 0 0 0 0 0 0 0 0 0 0 0
0 0 0 0 0 0 0 0 0 0 0 0 0 0 0 0 0 0 0 0 0 0 0 0 0 0 0 0 0 0 0 0 0 0 0 0 0 0 0 0 0 0 0
0 0 0 0 0 0 0 0 0 0 0 0 0 0 0 0 0 0 0 0 0 0 0 0 0 0 0 0 0 0 0 0 0 0 0 0 0 0 0 0 0 0 0
0 0 0 0 0 0 0 0 0 0 0 0 0 0 0 0 0 0 0 0 0 0 0 0 0 0 0 0 0 0 0 0 0 0 0 0 0 0 0 0 0 0 0
Height
5846 5847 5848 5849 5850 5850 5851 5852 5853 5853 5854 5855 5855 5856 5856 5857 5857 5857 5858 5858 5858 5859 5859 5859 5860 5860 5860 5861 5861 5861 5861 5862 5862 5862 5862 5862 5862 5862 5862 5862 5862 5862 5862
5843 5844 5845 5846 5847 5848 5849 5849 5850 5851 5852 5853 5853 5854 5855 5855 5855 5856 5856 5857 5857 5857 5858 5858 5859 5859 5859 5860 5860 5860 5860 5861 5861 5861 5861 5861 5861 5861 5861 5861 5861 5861 5861
5839 5840 5842 5843 5844 5845 5846 5847 5847 5848 5849 5850 5851 5852 5853 5853 5854 5854 5855 5855 5856 5856 5857 5857 5858 5858 5858 5859 5859 5859 5859 5860 5860 5860 5860 5860 5860 5860 5860 5860 5860 5860 5860
5835 5836 5838 5839 5840 5841 5842 5843 5844 5845 5846 5848 5848 5849 5850 5851 5852 5852 5853 5854 5854 5855 5855 5856 5856 5857 5857 5857 5858 5858 5858 5858 5858 5859 5859 5859 5859 5859 5858 5858 5858 5858 5858
5830 5831 5833 5834 5836 5837 5838 5840 5841 5842 5843 5844 5845 5846 5847 5849 5849 5850 5851 5852 5852 5853 5854 5854 5855 5855 5856 5856 5856 5857 5857 5857 5857 5857 5857 5857 5857 5857 5857 5857 5857 5856 5856
5824 5826 5828 5829 5831 5832 5834 5835 5837 5838 5839 5840 5842 5843 5844 5845 5847 5848 5849 5850 5850 5851 5852 5852 5853 5854 5854 5854 5855 5855 5855 5856 5856 5856 5856 5856 5856 5855 5855 5855 5855 5855 5854
5818 5820 5822 5824 5826 5828 5829 5831 5832 5834 5835 5836 5838 5839 5841 5842 5843 5845 5846 5847 5848 5849 5849 5850 5851 5851 5852 5852 5853 5853 5853 5854 5854 5854 5854 5854 5854 5854 5853 5853 5853 5853 5852
5812 5814 5816 5818 5820 5822 5824 5826 5827 5829 5830 5832 5833 5835 5837 5838 5840 5841 5842 5844 5845 5846 5847 5848 5848 5849 5849 5850 5850 5851 5851 5851 5852 5852 5852 5852 5852 5851 5851 5851 5851 5850 5850
5805 5807 5810 5812 5814 5817 5819 5820 5822 5824 5825 5827 5829 5831 5832 5834 5836 5837 5839 5840 5842 5843 5844 5845 5845 5846 5847 5847 5848 5848 5849 5849 5849 5850 5850 5849 5849 5849 5849 5849 5848 5848 5848
5798 5801 5803 5806 5808 5810 5813 5815 5817 5819 5820 5822 5824 5826 5828 5830 5831 5833 5835 5837 5838 5839 5840 5841 5842 5843 5844 5845 5845 5845 5846 5846 5847 5847 5847 5847 5846 5846 5846 5846 5846 5845 5845
5791 5794 5797 5799 5802 5804 5806 5809 5811 5813 5815 5817 5819 5821 5823 5825 5827 5829 5831 5833 5834 5836 5837 5838 5839 5840 5841 5841 5842 5842 5843 5843 5844 5844 5844 5844 5843 5843 5843 5843 5843 5842 5842
5785 5788 5790 5793 5795 5798 5800 5802 5805 5807 5809 5811 5814 5816 5818 5820 5822 5824 5826 5828 5830 5831 5833 5834 5835 5836 5837 5838 5838 5839 5839 5840 5840 5840 5840 5840 5840 5840 5840 5840 5839 5839 5839
5778 5781 5784 5786 5789 5791 5793 5796 5798 5801 5803 5805 5808 5810 5812 5814 5817 5819 5821 5823 5825 5826 5828 5830 5831 5832 5833 5834 5834 5835 5835 5836 5836 5837 5836 5836 5836 5836 5836 5836 5836 5835 5835
5771 5774 5776 5779 5782 5784 5786 5789 5791 5794 5796 5799 5801 5803 5806 5808 5811 5813 5815 5817 5819 5821 5823 5825 5826 5828 5829 5829 5830 5831 5831 5832 5832 5832 5832 5832 5832 5832 5832 5832 5831 5831 5830
5763 5766 5769 5772 5775 5777 5779 5781 5784 5787 5789 5792 5794 5796 5799 5801 5804 5807 5809 5811 5813 5815 5818 5819 5821 5822 5824 5824 5826 5826 5827 5827 5828 5828 5828 5828 5828 5827 5827 5827 5826 5826 5825
5755 5758 5761 5764 5767 5769 5771 5774 5776 5779 5782 5784 5786 5789 5791 5794 5797 5800 5803 5805 5806 5809 5811 5813 5815 5817 5818 5819 5820 5821 5822 5822 5823 5823 5823 5823 5823 5823 5822 5822 5821 5821 5820
5747 5750 5753 5756 5759 5761 5763 5765 5768 5770 5773 5776 5779 5781 5784 5786 5789 5792 5795 5798 5799 5802 5804 5807 5809 5811 5812 5813 5814 5815 5816 5816 5817 5817 5817 5817 5817 5817 5817 5816 5816 5815 5814
5739 5742 5744 5747 5750 5753 5755 5757 5759 5762 5765 5768 5770 5773 5775 5778 5782 5785 5788 5791 5793 5795 5797 5800 5802 5804 5805 5807 5808 5809 5809 5810 5811 5811 5811 5811 5811 5811 5810 5810 5809 5809 5808
5732 5734 5736 5739 5741 5744 5747 5749 5751 5754 5756 5759 5762 5765 5767 5771 5774 5777 5780 5783 5786 5788 5790 5792 5795 5797 5798 5800 5801 5802 5803 5804 5804 5804 5805 5805 5804 5804 5804 5803 5803 5802 5801
5724 5726 5728 5731 5733 5736 5738 5740 5743 5745 5748 5751 5754 5757 5760 5763 5766 5770 5772 5775 5778 5781 5783 5785 5787 5789 5791 5792 5794 5795 5796 5796 5797 5797 5797 5797 5797 5797 5797 5796 5795 5795 5794
5717 5719 5720 5723 5725 5728 5730 5733 5735 5737 5740 5743 5746 5749 5752 5755 5758 5762 5765 5768 5771 5773 5775 5777 5779 5781 5783 5785 5786 5787 5788 5789 5789 5790 5790 5790 5789 5789 5789 5788 5788 5787 5786
5710 5712 5714 5716 5718 5720 5723 5725 5727 5730 5732 5735 5738 5741 5744 5747 5750 5754 5757 5760 5762 5765 5767 5769 5771 5773 5775 5777 5778 5779 5780 5781 5781 5781 5781 5781 5781 5781 5780 5780 5779 5778 5777
5705 5706 5708 5710 5711 5714 5716 5718 5721 5723 5725 5728 5731 5733 5736 5739 5742 5746 5749 5752 5754 5757 5759 5761 5762 5765 5767 5768 5770 5771 5772 5772 5773 5773 5773 5773 5772 5772 5771 5771 5770 5769 5768
5699 5700 5702 5703 5705 5706 5708 5711 5714 5716 5718 5721 5723 5726 5728 5731 5734 5737 5740 5743 5746 5748 5750 5752 5754 5756 5758 5759 5761 5762 5763 5764 5764 5765 5764 5764 5763 5763 5762 5761 5760 5759 5758
5694 5695 5696 5698 5699 5700 5702 5704 5707 5709 5711 5713 5716 5718 5721 5724 5726 5729 5732 5735 5737 5739 5741 5743 5745 5747 5748 5750 5751 5752 5753 5754 5754 5755 5755 5755 5754 5753 5752 5751 5750 5749 5748
5688 5690 5691 5692 5693 5694 5696 5698 5700 5702 5704 5706 5708 5711 5713 5715 5718 5721 5723 5726 5728 5730 5732 5734 5736 5737 5739 5740 5741 5742 5743 5743 5743 5744 5744 5744 5743 5743 5742 5741 5739 5738 5737
Wind_Speed
16 16 15 15 14 14 13 12 12 11 10 10 9 9 8 8 8 7 6 6 6 5 5 5 5 4 4 3 3 3 3 3 3 4 4 4 4 4 4 4 5 5 5
19 18 17 17 16 16 15 14 14 13 12 12 11 10 9 9 9 8 8 7 6 6 5 5 5 5 4 4 4 4 4 4 4 4 4 4 4 4 4 5 5 6 6
21 20 19 19 18 18 17 16 16 15 14 13 13 12 11 10 10 9 9 8 8 7 6 5 5 5 5 5 4 4 4 4 4 4 4 4 4 4 5 6 6 7 7
24 23 22 21 20 19 19 18 18 17 17 16 15 14 13 12 11 10 10 10 9 8 8 7 6 6 6 5 5 5 5 4 4 5 5 5 5 5 6 7 7 8 8
26 25 24 23 22 21 21 20 20 19 18 17 17 16 15 14 13 12 12 11 10 10 9 8 8 7 7 7 7 6 6 5 5 5 5 6 6 7 7 7 7 8 9
29 28 26 25 24 23 22 22 21 21 20 19 18 18 17 16 16 15 14 13 12 11 10 10 9 9 9 8 8 8 7 7 7 7 7 7 7 8 8 8 8 9 9
30 29 28 27 26 25 24 23 23 22 22 21 20 19 19 18 17 17 16 15 14 13 12 11 11 10 10 9 9 9 9 8 8 8 8 8 9 9 9 9 9 9 10
31 31 30 28 27 26 26 25 24 24 24 23 22 21 21 20 19 18 18 17 16 15 14 13 12 12 11 11 10 10 10 10 9 9 9 10 10 10 10 10 10 10 10
32 32 31 30 29 28 27 27 26 26 25 25 25 24 23 22 21 20 20 19 18 17 16 15 14 13 13 12 12 12 12 12 11 11 11 11 11 11 11 11 11 11 11
31 32 32 31 30 29 29 28 28 27 27 26 26 25 25 24 23 22 21 21 20 19 18 17 16 15 14 14 13 13 13 13 13 13 13 13 13 13 13 13 13 13 13
31 31 31 31 30 30 29 29 28 28 28 27 27 27 26 26 25 24 23 22 21 21 20 19 18 17 16 16 15 15 14 14 14 14 14 14 14 14 14 14 14 15 14
32 32 31 31 31 31 30 30 29 29 29 28 28 28 28 27 27 26 25 25 24 23 22 21 20 20 19 18 17 17 16 16 16 15 16 16 16 16 16 16 16 16 16
33 32 32 32 32 31 31 31 31 30 30 30 29 29 29 29 28 28 26 27 26 25 23 23 22 21 20 19 19 18 18 18 17 17 17 17 17 17 17 17 18 18 19
33 33 33 33 33 32 32 32 32 32 31 31 30 30 31 31 30 29 29 28 28 27 26 25 24 23 22 21 20 20 19 19 19 19 19 19 19 19 19 19 19 20 20
33 33 34 34 33 32 33 34 33 33 33 32 33 32 32 32 32 31 30 29 29 29 28 27 26 25 24 23 22 22 21 21 20 20 20 20 21 20 21 21 21 21 22
33 34 35 34 34 32 33 34 34 35 34 34 33 34 33 33 32 32 31 31 30 30 29 29 28 27 26 25 24 23 23 23 22 22 22 22 22 22 23 23 23 24 24
32 34 35 35 35 34 34 33 33 36 36 35 35 35 35 35 34 32 33 33 31 31 31 30 30 29 28 27 26 25 25 25 24 24 24 24 24 24 25 25 25 26 26
32 33 34 35 35 36 35 34 35 35 37 37 36 36 36 36 35 34 34 34 33 32 32 32 31 30 29 28 28 27 27 26 26 26 25 26 26 26 27 27 27 28 28
30 32 32 34 35 37 36 36 36 36 37 38 38 37 37 37 37 36 34 34 34 33 33 33 32 32 31 30 30 29 29 28 28 28 28 28 28 29 29 29 29 30 30
30 31 31 33 35 37 36 34 35 37 37 38 38 38 38 38 38 38 36 35 34 34 34 34 34 34 33 31 31 31 30 30 30 30 30 30 30 31 31 31 32 32 32
29 31 31 31 33 34 35 35 34 36 37 37 38 39 39 40 40 40 40 38 36 36 35 35 36 35 35 34 33 33 33 33 33 33 32 32 33 33 33 33 33 34 34
28 29 29 29 30 33 35 36 35 34 36 37 38 38 39 40 41 40 40 39 38 36 35 36 36 36 36 36 35 34 34 34 35 34 34 34 35 35 35 35 36 36 37
27 27 28 28 29 31 33 34 34 35 35 36 36 37 38 39 40 41 41 39 38 37 37 37 37 37 38 38 37 36 36 36 36 37 37 37 37 37 37 38 38 38 39
27 28 28 27 27 29 30 31 32 32 33 35 36 37 37 38 38 40 40 40 39 38 39 39 39 39 39 40 40 39 39 39 38 39 39 39 39 40 39 40 40 41 40
26 26 27 27 27 28 29 30 30 30 31 33 34 36 36 37 38 40 40 40 40 40 39 39 39 39 40 41 41 41 41 41 41 41 41 42 42 42 42 42 42 43 43
26 26 26 26 26 27 27 28 29 30 30 31 32 34 35 35 36 37 39 40 40 40 40 39 39 40 41 43 44 44 44 43 43 43 43 43 43 44 44 44 45 45 46
Wind_Direction
242 242 242 242 242 241 240 240 239 237 235 235 234 231 229 229 233 233 234 233 232 230 229 223 219 222 228 234 246 260 270 285 298 304 302 301 298 293 291 295 300 304 303
243 243 243 244 243 243 242 242 242 240 238 237 236 235 234 232 233 233 234 232 230 227 224 225 226 229 236 242 251 261 271 283 289 295 295 296 294 290 288 290 295 300 301
243 244 244 245 245 244 244 244 243 242 240 238 237 237 236 236 234 232 232 231 231 228 229 232 233 235 238 245 254 262 271 280 284 287 288 289 287 288 290 294 296 296 298
243 243 244 245 246 246 244 244 243 241 241 240 237 236 237 237 236 233 232 232 231 232 235 238 240 242 244 249 255 262 270 278 283 284 286 286 285 289 292 294 294 294 296
243 242 243 245 245 246 245 245 244 243 241 241 239 238 237 238 237 235 234 234 235 235 237 239 243 247 247 249 255 264 270 276 281 282 284 286 287 288 292 294 294 294 296
242 241 242 243 244 244 245 245 245 243 242 240 239 239 238 239 238 238 237 237 238 239 239 239 242 246 249 251 255 262 267 271 276 278 282 286 288 289 291 292 296 297 297
242 241 241 242 242 242 243 244 245 244 242 241 239 239 239 239 239 238 239 239 241 241 242 242 244 247 249 251 256 262 266 268 275 279 282 286 287 288 288 290 294 297 297
241 241 241 241 241 241 242 243 244 244 243 242 240 239 239 240 239 239 240 241 242 243 243 245 247 249 249 253 257 262 266 267 272 278 281 285 286 287 288 289 291 294 296
241 241 241 242 241 241 242 243 243 244 244 243 241 240 240 242 241 241 241 242 243 245 248 248 248 249 251 254 258 263 267 268 269 274 278 282 284 285 286 286 288 291 292
241 240 240 241 241 242 242 243 244 244 244 243 243 241 241 242 243 242 241 243 244 246 249 250 250 251 252 256 259 264 268 269 269 272 276 278 281 283 283 284 287 289 290
241 240 240 241 241 242 242 243 244 243 243 244 243 242 242 243 243 243 242 243 245 247 249 251 253 254 254 258 262 265 268 270 271 272 274 277 279 281 281 282 285 288 289
241 240 241 241 242 243 242 243 244 244 244 244 243 242 242 242 243 244 244 243 245 248 249 252 255 256 257 258 261 264 267 270 272 272 273 276 278 279 280 280 283 286 287
240 240 241 242 242 242 242 243 244 244 244 244 244 242 242 242 243 244 245 244 245 247 250 252 255 258 259 259 261 264 267 269 271 272 273 276 278 280 279 280 282 284 286
241 240 241 242 243 243 244 244 244 244 244 244 245 244 242 242 242 244 245 246 246 247 249 253 254 257 260 262 263 265 267 269 270 272 274 276 278 280 280 280 281 283 285
241 239 240 241 243 244 245 244 244 245 244 244 244 245 244 242 243 243 245 246 246 246 248 251 254 257 260 263 265 266 268 270 271 273 274 276 277 279 280 280 281 283 285
242 240 240 241 243 245 246 244 244 244 244 244 244 244 244 244 243 244 246 247 247 247 248 250 253 257 261 263 265 265 268 270 271 273 275 276 278 279 280 281 282 283 284
242 241 240 240 241 243 245 244 246 243 243 244 243 243 243 243 244 244 246 247 247 247 247 249 251 255 259 262 263 265 267 270 272 273 274 276 277 278 280 281 282 283 283
243 244 243 242 242 243 244 245 245 243 242 243 244 243 243 242 243 245 246 246 248 247 247 248 251 254 257 260 262 264 267 270 272 274 274 275 277 278 279 280 281 282 283
246 244 244 244 243 244 246 247 246 244 244 243 244 244 243 242 242 244 245 246 247 248 248 248 250 253 256 259 261 263 266 269 272 273 275 276 277 278 279 280 281 282 282
247 245 245 245 244 244 247 248 247 245 243 243 244 245 244 243 243 245 246 247 248 250 250 249 251 253 255 259 262 263 266 269 271 272 274 276 277 278 279 280 280 281 281
249 248 245 243 244 244 246 247 247 245 243 243 245 246 245 244 245 246 249 249 248 250 251 251 252 253 255 258 262 263 265 267 270 271 273 275 277 278 279 279 280 280 280
253 249 246 245 246 245 246 246 247 247 246 245 246 248 247 246 247 248 250 251 250 251 252 251 253 254 256 259 262 264 265 267 269 271 273 275 276 277 279 280 279 280 280
252 248 249 250 248 245 245 246 247 247 248 248 248 249 249 248 248 248 250 252 253 252 252 253 254 254 255 259 261 263 266 268 269 271 273 275 276 277 278 279 279 280 280
252 250 250 252 250 248 247 248 248 248 249 249 249 249 249 249 249 250 252 253 252 252 254 255 255 255 257 259 261 263 267 269 271 272 273 274 276 277 278 278 279 280 280
255 255 253 253 253 252 250 249 248 250 251 249 249 249 249 250 251 252 253 254 255 256 257 258 257 256 258 260 262 264 267 270 271 272 274 274 275 277 277 278 279 280 280
255 258 258 256 256 254 252 249 248 250 252 252 251 251 250 251 253 254 254 255 257 258 258 260 260 260 261 261 262 264 267 269 271 273 273 275 275 277 278 279 280 281 280